Theta_e
309 309 310 309 309 309 309 307 307 309 310 310 310 310 310 310 309 312 313 313 315 316 316 316 317 322 322 323 322 321 321 324 325 326 327 329 329 328 328 328 331 332 335 359 355
308 308 309 309 309 309 309 308 308 308 309 310 310 310 310 309 309 311 313 313 313 313 315 315 318 323 324 323 323 322 322 322 324 326 327 328 328 330 327 326 327 331 344 354 357
308 308 308 308 308 307 308 308 308 309 309 309 310 310 308 309 314 320 316 313 318 313 313 314 316 321 325 324 322 321 321 321 323 324 326 327 328 329 328 325 325 326 334 345 352
305 305 305 306 304 304 305 307 308 309 309 309 309 308 308 311 318 323 316 315 313 315 318 317 315 318 323 325 324 320 319 320 321 322 323 324 325 326 326 326 327 327 329 339 349
301 301 300 300 301 302 301 305 307 308 309 308 308 309 310 314 317 317 317 314 319 323 325 325 320 318 321 323 324 323 321 320 320 321 321 321 321 323 324 325 325 325 327 337 342
299 297 297 297 298 298 300 305 307 307 308 309 308 309 312 314 314 317 314 313 317 319 321 322 321 318 320 322 323 324 325 325 323 321 321 320 320 321 322 324 324 324 324 325 325
297 297 297 297 298 300 304 307 307 307 308 308 309 312 313 314 314 314 313 313 313 314 321 321 322 323 323 322 323 323 324 325 327 326 323 322 320 320 321 322 323 323 324 323 325
296 296 296 297 298 300 305 307 307 307 309 310 311 313 313 313 314 314 313 314 313 315 316 319 321 323 323 323 322 323 324 326 326 326 326 324 322 321 321 321 322 321 323 323 323
297 296 296 297 297 300 306 305 305 307 310 311 313 314 319 316 316 314 312 313 313 313 315 318 320 321 322 324 324 324 326 325 325 325 326 324 324 323 322 321 322 322 322 322 323
296 296 296 296 297 303 307 311 312 308 313 313 315 318 318 318 317 315 317 316 319 318 315 317 317 319 321 323 327 324 324 324 325 326 325 326 327 325 323 322 323 323 321 322 322
295 296 296 296 297 305 309 314 316 316 316 318 317 318 316 317 315 317 318 320 321 321 322 316 319 319 317 319 321 323 323 323 324 325 326 327 326 327 325 323 322 323 324 322 323
296 296 296 297 298 307 310 316 313 311 312 313 313 314 314 314 315 315 314 317 320 322 321 321 318 318 318 317 318 320 321 322 323 323 325 327 327 328 327 325 324 324 324 323 324
296 296 296 298 302 311 314 314 311 311 312 313 314 315 315 315 314 313 313 316 315 320 320 321 320 319 319 319 318 317 319 321 321 321 323 326 329 328 326 327 326 325 325 324 322
296 296 297 300 310 312 315 312 312 312 314 316 316 317 318 318 319 318 319 320 316 317 321 321 320 319 319 320 320 320 318 318 319 322 324 324 329 330 327 326 327 327 324 324 322
295 296 297 302 308 316 314 312 312 315 322 317 320 320 319 320 319 318 319 320 319 319 321 324 323 321 320 322 322 323 320 319 318 320 322 323 326 328 327 326 326 327 327 327 324
295 296 299 307 311 313 312 312 313 321 326 316 316 316 317 317 317 316 318 318 318 319 318 320 320 320 320 320 321 321 323 325 319 320 322 323 325 327 327 327 327 326 327 327 325
295 297 303 307 313 311 310 313 318 321 317 317 314 314 315 315 314 314 314 315 315 316 318 318 319 317 317 316 317 319 324 332 325 323 324 321 323 324 326 325 325 326 327 326 326
296 301 309 309 312 309 309 313 319 317 314 310 309 308 309 309 311 313 316 321 318 319 320 322 324 319 318 319 319 321 322 330 329 326 323 322 323 323 323 323 325 324 326 327 327
299 306 310 311 311 307 310 314 316 311 308 307 306 306 307 306 307 308 311 311 314 317 323 325 321 320 319 320 320 322 324 324 329 321 321 321 323 323 323 323 324 324 325 328 328
302 307 311 311 310 307 314 316 313 308 306 305 305 305 307 307 308 309 308 311 315 316 321 322 324 318 318 319 320 321 323 328 327 327 331 327 328 324 324 325 324 325 325 328 329
304 310 310 309 308 310 312 311 308 306 305 305 305 307 308 308 310 310 310 309 310 316 318 318 321 320 321 325 323 322 326 326 327 325 325 329 330 334 334 327 326 326 326 328 330
303 309 309 308 309 311 309 307 306 306 306 306 307 307 308 310 310 310 312 310 313 316 319 316 320 322 320 319 320 324 324 327 330 329 325 329 332 332 335 332 328 329 333 337 347
306 310 309 308 309 308 307 307 307 306 307 306 307 307 310 310 313 312 312 312 314 315 317 317 320 322 324 322 323 326 323 326 325 326 332 333 333 332 334 340 342 345 344 346 347
308 310 309 308 308 306 307 308 307 308 308 307 307 308 310 310 309 310 310 313 313 312 316 316 317 318 321 322 320 323 322 323 327 331 330 328 331 332 328 336 337 341 342 343 344
309 309 306 307 306 306 307 307 309 308 307 306 307 309 309 310 310 310 311 311 312 315 316 317 316 315 316 317 317 319 319 321 324 328 332 330 328 332 335 336 334 337 341 342 343
305 305 304 306 305 306 307 307 307 307 306 307 308 307 308 310 310 312 311 312 312 312 313 316 318 317 317 317 319 321 320 321 322 326 327 327 326 330 333 333 335 338 340 341 341
302 302 303 304 304 305 306 306 307 306 306 306 307 308 310 311 311 311 311 311 311 313 313 315 316 316 318 317 318 328 323 322 324 327 325 332 331 329 333 333 335 336 336 336 331
Wind_Speed
17 18 19 20 21 21 22 22 22 22 21 21 21 22 24 27 30 29 27 25 13 15 23 22 18 21 21 20 22 19 16 18 27 27 21 22 25 5 4 11 18 9 8 15 23
20 20 20 20 20 20 21 21 22 23 23 22 22 23 24 27 29 33 31 25 26 22 15 16 16 17 16 17 19 20 17 29 24 24 25 27 27 23 13 15 16 12 13 15 15
21 21 22 22 22 23 22 21 21 21 21 21 21 21 25 24 19 0 2 5 17 24 19 21 21 21 22 21 22 25 26 24 25 26 28 26 27 24 12 14 14 18 16 13 14
24 24 25 25 26 27 26 25 24 23 22 21 20 19 19 14 7 5 3 4 5 9 13 18 18 21 24 25 24 28 30 28 26 27 24 24 27 22 16 15 15 19 15 18 17
28 28 29 30 30 29 31 30 28 25 24 22 20 15 12 9 13 18 8 7 8 9 16 15 19 21 24 24 24 30 28 28 27 26 26 24 27 22 20 14 12 11 6 12 8
30 31 32 34 34 35 35 32 31 31 26 23 17 11 10 14 13 10 5 8 12 17 18 19 18 21 21 23 28 24 26 28 25 28 26 26 27 17 21 20 18 16 10 12 12
31 33 34 34 36 39 37 34 32 29 27 21 15 9 14 27 11 8 12 13 14 17 18 21 21 19 19 24 25 25 30 28 28 30 28 27 26 29 20 23 23 18 17 14 16
33 34 36 36 40 42 41 38 31 24 19 18 8 10 10 13 11 18 21 23 19 17 21 20 22 19 22 23 24 24 27 26 29 27 27 23 29 27 23 22 22 20 18 17 18
36 38 41 40 44 43 38 29 19 12 6 5 7 12 10 3 12 17 17 17 19 19 17 14 15 17 18 20 20 24 23 28 25 27 29 24 32 26 23 24 24 21 20 19 17
38 40 43 43 44 38 31 30 13 9 4 8 15 9 11 12 3 7 10 15 14 11 15 15 9 17 18 17 21 23 25 27 28 23 28 27 31 24 25 22 22 19 23 21 22
39 41 43 44 40 29 28 16 4 6 11 15 16 17 20 15 10 11 10 9 13 17 18 18 15 22 24 24 27 26 25 28 27 26 28 25 30 25 23 21 16 22 24 26 22
40 43 44 44 37 22 15 9 13 14 21 20 33 34 42 35 29 24 15 18 15 20 20 18 24 24 21 24 26 26 26 29 26 26 24 24 29 25 25 25 23 19 15 14 18
40 43 45 44 29 14 13 8 15 18 11 23 25 21 23 19 21 20 18 19 24 21 22 23 25 25 26 24 24 25 26 25 26 25 28 21 24 24 20 24 20 22 20 16 15
41 45 44 36 12 22 10 16 16 15 7 19 6 3 5 5 12 18 20 16 20 25 24 22 24 27 26 22 25 24 24 26 26 23 19 22 16 21 20 18 19 23 24 20 20
42 45 42 23 15 11 13 17 16 11 8 4 8 3 7 11 13 8 18 12 20 21 21 20 28 21 22 26 24 22 19 22 25 23 23 28 14 19 20 22 22 22 20 23 23
45 43 44 17 13 17 21 18 13 6 9 11 18 20 16 21 14 16 12 16 21 26 23 27 26 24 24 23 24 22 16 28 23 18 19 24 22 17 22 20 24 23 23 22 19
48 46 34 15 9 17 20 13 8 10 16 22 29 24 21 23 24 26 26 27 22 22 24 22 28 27 25 29 27 19 10 12 13 15 17 22 24 19 22 24 21 21 26 26 22
46 42 20 10 11 16 19 11 12 12 18 27 27 31 28 28 28 22 17 16 20 28 7 15 20 29 23 20 22 23 20 11 12 15 20 25 25 22 27 26 24 14 23 24 24
41 25 20 13 5 15 8 9 12 18 24 24 30 23 27 30 31 28 27 25 22 19 6 9 18 16 16 18 18 26 8 11 15 22 15 15 27 27 23 28 28 14 8 20 19
31 21 12 1 10 14 6 14 18 22 23 21 24 24 26 27 27 27 24 20 19 17 11 7 8 12 20 9 22 20 5 14 13 20 9 13 20 19 25 27 25 19 10 7 12
14 8 8 7 17 7 10 14 22 22 17 18 20 22 24 21 18 22 26 25 13 10 4 5 6 6 5 6 20 17 10 3 6 17 16 9 8 12 22 17 22 17 15 11 9
10 8 20 11 10 4 8 18 17 17 13 17 15 17 20 19 15 17 20 22 8 6 10 4 5 8 16 12 21 11 20 19 5 13 17 5 4 19 21 9 15 11 12 12 16
8 11 6 19 9 10 17 19 17 14 15 15 17 19 12 9 9 7 6 13 15 9 1 2 3 7 11 11 3 4 13 15 12 4 20 11 9 11 14 13 10 16 13 12 13
5 8 9 10 9 17 18 20 18 13 16 20 19 17 5 20 17 16 10 5 14 6 7 6 3 6 10 13 10 8 19 13 13 9 15 15 19 4 10 12 6 9 10 11 14
4 8 13 9 14 17 18 20 16 19 16 19 17 15 23 16 23 19 24 22 19 9 4 0 3 12 17 19 21 22 22 20 16 16 15 15 14 10 10 8 7 5 10 12 14
7 11 9 16 12 19 20 15 21 21 22 18 16 26 22 17 18 24 21 19 18 16 11 2 4 14 19 18 18 24 24 22 19 17 14 11 6 2 5 6 3 8 9 11 13
17 19 8 10 14 16 16 21 18 20 10 21 20 21 21 18 22 24 22 21 21 21 18 14 8 6 7 10 21 10 24 20 18 20 18 18 13 9 10 10 6 12 9 16 16
Wind_Direction
355 351 345 341 337 334 332 330 327 325 324 321 320 318 315 313 309 302 273 250 254 251 260 265 270 246 230 236 238 239 242 244 242 248 252 262 270 152 169 238 260 160 161 84 130
352 348 343 338 333 329 325 323 320 319 319 319 319 318 316 317 306 285 270 255 245 252 247 243 245 237 229 230 231 228 238 237 244 250 250 262 271 275 190 215 240 207 128 128 161
350 346 342 337 333 329 324 319 314 312 310 312 314 315 316 325 301 69 15 300 212 234 245 247 261 258 232 231 229 230 239 246 246 249 262 266 266 281 233 204 234 249 187 161 176
350 347 342 338 334 330 325 321 317 313 310 310 310 312 312 319 292 113 76 40 184 211 233 233 239 241 245 234 232 240 236 243 255 267 270 258 263 271 257 239 220 237 213 182 197
350 347 343 339 334 330 325 320 315 311 307 306 307 308 318 239 249 273 247 261 214 218 219 228 228 235 239 245 241 238 243 242 240 252 259 271 269 256 260 241 255 283 144 147 190
349 347 344 340 336 330 324 318 314 311 306 305 301 292 261 260 253 186 224 240 227 220 231 229 230 236 256 246 248 254 252 257 250 246 247 255 260 258 242 261 231 241 205 182 212
350 347 344 339 334 330 324 314 309 304 300 296 289 248 253 247 242 231 247 241 239 234 242 239 244 251 255 255 261 253 254 262 248 241 246 247 251 249 235 243 251 240 244 234 200
348 345 341 338 335 332 325 318 311 300 291 285 249 221 255 267 256 249 248 252 247 248 242 250 260 255 254 266 266 261 252 245 241 250 243 241 246 240 240 234 241 242 244 241 237
346 344 342 340 336 333 324 316 309 310 282 227 201 209 261 255 238 249 253 245 242 240 251 255 258 257 256 247 253 246 249 239 251 246 238 217 244 243 239 233 232 236 232 235 239
346 344 342 340 337 333 324 320 302 283 283 220 258 228 234 250 275 224 220 229 247 233 225 231 239 239 234 237 232 237 242 242 254 244 231 240 237 234 239 240 252 231 231 231 227
346 343 343 339 335 330 326 330 325 210 212 250 266 231 277 230 201 210 243 226 251 242 230 220 231 234 228 226 246 256 253 253 251 231 240 241 237 232 218 220 233 229 238 216 224
345 343 342 338 332 316 301 300 356 304 298 261 259 257 263 269 273 262 226 229 229 238 237 233 233 242 246 251 245 237 249 263 268 271 271 239 243 237 219 208 221 239 244 221 209
344 342 342 334 330 305 262 333 324 319 292 294 260 259 233 238 248 261 243 231 239 241 237 242 240 239 236 244 250 251 248 247 250 259 268 265 262 242 241 211 213 207 238 218 218
342 339 342 334 321 321 308 340 327 336 283 276 152 177 142 231 240 235 255 227 232 239 257 248 242 244 254 247 237 240 250 256 253 258 251 249 258 248 228 245 238 212 211 209 207
340 336 336 328 286 304 335 324 326 295 293 26 92 100 243 212 314 254 225 221 234 249 261 263 288 297 265 243 269 289 267 241 262 245 257 256 253 249 222 225 234 241 226 216 200
337 333 334 329 252 265 324 320 292 250 252 12 12 349 318 292 304 299 213 216 237 271 262 261 276 267 259 258 273 277 288 300 233 249 244 245 249 231 254 229 220 219 222 223 210
334 329 323 288 287 328 325 305 275 242 312 344 343 333 314 304 309 302 292 288 277 259 243 281 271 251 252 259 258 242 238 244 232 226 241 234 244 243 238 247 245 245 211 208 204
331 329 315 264 279 327 319 288 260 313 319 340 336 327 312 313 303 304 304 291 311 306 228 222 259 250 258 234 248 269 246 243 211 225 237 222 236 230 232 253 249 276 220 193 197
331 321 302 236 293 333 302 274 297 350 341 333 323 314 311 311 307 302 286 294 288 290 235 295 277 327 311 317 242 232 206 248 271 240 238 239 225 232 231 221 239 243 288 185 193
325 305 272 29 314 312 297 269 308 348 332 324 314 318 313 312 308 304 293 298 313 353 23 21 298 286 262 287 262 251 304 208 222 251 198 261 252 223 215 212 219 211 211 202 182
304 304 96 349 312 266 268 309 332 325 324 328 321 320 322 327 311 299 293 288 288 308 328 340 258 289 53 249 245 242 211 150 295 252 232 242 267 336 317 194 195 184 180 196 157
301 295 315 344 302 256 322 333 318 320 337 333 338 319 318 329 314 302 277 281 18 335 328 129 278 276 276 193 238 308 218 207 184 247 248 196 256 292 324 48 162 149 152 138 101
302 293 61 348 305 336 333 312 314 338 320 336 330 312 19 306 304 329 307 307 327 298 325 328 252 316 313 174 151 321 245 245 221 242 266 281 214 164 317 47 48 105 111 111 103
289 315 337 315 329 348 316 310 316 341 336 333 327 326 292 318 316 307 336 256 230 280 171 275 253 271 282 306 287 306 297 295 221 214 241 252 284 203 165 119 190 128 127 144 133
269 328 340 309 327 311 296 298 319 336 339 334 317 325 323 315 312 312 322 327 328 102 172 157 290 302 296 297 290 278 276 279 270 199 241 268 270 273 19 60 118 159 159 151 150
314 345 328 298 313 294 295 352 341 337 337 316 326 313 310 296 301 309 315 309 311 298 285 210 289 311 297 281 280 261 258 253 257 263 204 247 253 264 132 59 189 146 134 139 135
341 327 316 310 311 313 346 332 336 331 316 319 306 307 305 309 304 298 292 283 270 277 279 291 288 302 264 342 329 260 235 223 231 233 226 204 210 85 158 138 174 104 103 89 62